Terug naar catalogus

COSMOS 2251 DEB

ActiefLEO
NORAD 34671·DEBRIS·🇷🇺 Russia

Gelanceerd Jun 16, 1993 vanaf Plesetsk Cosmodrome

Loading…

Volgende Passages (komende 24 uur)

TLE

VersSource: Space-Track

Epoch: Sep 14, 2026, 22:25 UTC

1 34671U 93036XR  26257.93445220  .00005239  00000-0  85951-3 0  9993
2 34671  74.0250 319.1273 0013936 325.4766 213.4089 14.70886262923535

Volg COSMOS 2251 DEB in realtime met AllMySat

Download on the App Store